Location: Tel Aviv
(32.0670°N, 34.7670°E)
Time: 12:18:03
(UTC+03:00)

Explorer 11/Cluster Stage 4 - Pass Details

Date: 18 September 2024
Orbit: 464 x 1208 km, 28.8° (Epoch: 05 October)

Event Time Altitude Azimuth Distance (km) Brightness Sun altitude
Rises 12:55:37 0° 262° (W) 4,082 10.4 59.1°
Reaches altitude 10° 13:00:47 10° 235° (SW) 3,139 10.2 58.9°
Maximum altitude 13:03:32 12° 214° (SW) 2,968 10.2 58.8°
Drops below altitude 10° 13:06:15 10° 193° (SSW) 3,095 10.3 58.6°
Sets 13:11:17 0° 165° (SSE) 3,956 10.6 58.3°
